START_TIME,STEP,MOV.,M6,t_acc.,M7,t_acc.,M19,t_acc.,H36,t_acc.
1979-07-18 15:00:27.010 ,1,0,0.,12.0,0.,12.0,0.,12.0,0.,12.0
1979-07-18 15:00:39.010 ,1,0,0.,12.0,0.,12.0,0.,12.0,0.,12.0
1979-07-18 15:00:51.010 ,2,1,0.,12.0,0.,12.0,0.,12.0,0.,12.0
1979-07-18 15:01:03.010 ,2,1,0.,12.0,0.,12.0,0.,12.0,0.,12.0
1979-07-18 15:01:15.010 ,2,0,0.,12.0,0.,12.0,0.,12.0,0.,12.0
1979-07-18 15:01:27.010 ,2,0,0.,12.0,0.,12.0,0.,12.0,0.,12.0
1979-07-18 15:02:27.010 ,0,0,0.,12.0,0.,12.0,0.,12.0,0.,12.0
1979-07-18 15:02:39.010 ,0,0,0.,12.0,0.,12.0,0.,12.0,0.,12.0
1979-07-18 15:02:51.010 ,0,0,0.,12.0,0.,12.0,0.,12.0,0.,12.0
1979-07-18 15:03:03.010 ,0,0,0.,12.0,0.,12.0,0.,12.0,0.,12.0
1979-07-18 15:03:15.010 ,5,1,0.,12.0,0.,12.0,0.,12.0,0.,12.0
1979-07-18 15:03:27.010 ,5,1,0.,12.0,0.,12.0,0.,12.0,0.,12.0
1979-07-18 15:03:39.010 ,5,0,0.,12.0,0.,12.0,0.,12.0,0.,12.0
1979-07-18 15:03:51.010 ,5,0,0.,12.0,0.,12.0,0.,12.0,0.,12.0
1979-07-18 15:04:03.010 ,6,1,0.,12.0,0.,12.0,0.,12.0,0.,12.0
1979-07-18 15:04:15.010 ,6,1,0.,12.0,0.,12.0,0.,12.0,0.,12.0
1979-07-18 15:04:27.010 ,6,0,0.,12.0,0.,12.0,0.,12.0,0.,12.0
1979-07-18 15:04:39.010 ,6,0,0.,12.0,0.,12.0,0.,12.0,0.,12.0
1979-07-18 15:04:51.010 ,7,1,0.,12.0,0.,12.0,0.,12.0,0.,12.0
1979-07-18 15:05:03.010 ,7,1,0.,12.0,0.,12.0,0.,12.0,0.,12.0
1979-07-18 15:05:15.010 ,7,0,0.,12.0,0.,12.0,0.,12.0,0.,12.0
1979-07-18 15:05:27.010 ,7,0,0.,12.0,0.,12.0,0.,12.0,0.,12.0
1979-07-18 15:05:39.010 ,7,1,0.,12.0,0.,12.0,0.,12.0,0.,12.0
1979-07-18 15:05:51.010 ,7,1,0.,12.0,0.,12.0,0.,12.0,0.,12.0
1979-07-18 15:06:03.010 ,7,0,0.,12.0,0.,12.0,0.,12.0,0.,12.0
1979-07-18 15:06:15.010 ,7,0,0.,12.0,0.,12.0,0.,12.0,0.,12.0
1979-07-18 15:06:27.010 ,6,1,0.,12.0,0.,12.0,0.,12.0,0.,12.0
1979-07-18 15:06:39.010 ,6,1,0.,12.0,0.,12.0,0.,12.0,0.,12.0
1979-07-18 15:06:51.010 ,6,0,0.,12.0,0.,12.0,0.,12.0,0.,12.0
1979-07-18 15:07:03.010 ,6,0,0.,12.0,0.,12.0,0.,12.0,0.,12.0
1979-07-18 15:07:15.010 ,5,1,0.,12.0,0.,12.0,0.,12.0,0.,12.0
1979-07-18 15:07:27.010 ,5,1,0.,12.0,0.,12.0,0.,12.0,0.,12.0
1979-07-18 15:07:39.010 ,5,0,0.,12.0,0.,12.0,0.,12.0,0.,12.0
1979-07-18 15:07:51.010 ,5,0,0.,12.0,0.,12.0,0.,12.0,0.,12.0
1979-07-18 15:08:03.010 ,4,1,0.,12.0,0.,12.0,0.,12.0,0.,12.0
1979-07-18 15:08:15.010 ,4,1,1.,12.0,0.,12.0,0.,12.0,0.,12.0
1979-07-18 15:08:27.010 ,4,0,0.,12.0,0.,12.0,0.,12.0,0.,12.0
1979-07-18 15:08:39.010 ,4,0,0.,12.0,0.,12.0,0.,12.0,0.,12.0
1979-07-18 15:08:51.010 ,3,1,0.,12.0,0.,12.0,0.,12.0,0.,12.0
1979-07-18 15:09:03.010 ,3,1,1.,12.0,0.,12.0,0.,12.0,0.,12.0
1979-07-18 15:09:15.010 ,3,0,0.,12.0,0.,12.0,0.,12.0,0.,12.0
1979-07-18 15:09:27.010 ,3,0,0.,12.0,0.,12.0,0.,12.0,0.,12.0
1979-07-18 15:09:39.010 ,2,1,0.,12.0,0.,12.0,0.,12.0,0.,12.0
1979-07-18 15:09:51.010 ,2,1,0.,12.0,0.,12.0,0.,12.0,0.,12.0
1979-07-18 15:10:03.010 ,2,0,0.,12.0,0.,12.0,0.,12.0,0.,12.0
1979-07-18 15:10:15.010 ,2,0,0.,12.0,0.,12.0,0.,12.0,0.,12.0
1979-07-18 15:10:27.010 ,1,1,0.,12.0,0.,12.0,0.,12.0,0.,12.0
1979-07-18 15:10:39.010 ,1,1,0.,12.0,0.,12.0,0.,12.0,0.,12.0
1979-07-18 15:10:51.010 ,1,0,0.,12.0,0.,12.0,0.,12.0,0.,12.0
1979-07-18 15:11:03.010 ,1,0,0.,12.0,0.,12.0,0.,12.0,0.,12.0
1979-07-18 15:11:15.010 ,0,1,0.,12.0,0.,12.0,0.,12.0,0.,12.0
1979-07-18 15:11:27.010 ,0,1,0.,12.0,0.,12.0,0.,12.0,0.,12.0
1979-07-18 15:11:39.010 ,0,0,1.,12.0,0.,12.0,0.,12.0,0.,12.0
1979-07-18 15:11:51.010 ,0,0,1.,12.0,0.,12.0,0.,12.0,0.,12.0
1979-07-18 15:12:03.010 ,0,1,0.,12.0,0.,12.0,0.,12.0,0.,12.0
1979-07-18 15:12:15.010 ,0,1,0.,12.0,0.,12.0,0.,12.0,0.,12.0
1979-07-18 15:12:27.010 ,0,0,0.,12.0,0.,12.0,0.,12.0,0.,12.0
1979-07-18 15:12:39.010 ,0,0,0.,12.0,0.,12.0,0.,12.0,0.,12.0
1979-07-18 15:12:51.010 ,1,1,0.,12.0,0.,12.0,0.,12.0,0.,12.0
1979-07-18 15:13:03.010 ,1,1,0.,12.0,0.,12.0,0.,12.0,0.,12.0
1979-07-18 15:13:15.010 ,1,0,0.,12.0,0.,12.0,0.,12.0,0.,12.0
1979-07-18 15:13:27.010 ,1,0,0.,12.0,0.,12.0,0.,12.0,0.,12.0
1979-07-18 15:13:39.010 ,2,1,0.,12.0,0.,12.0,0.,12.0,0.,12.0
1979-07-18 15:13:51.010 ,2,1,0.,12.0,0.,12.0,0.,12.0,0.,12.0
1979-07-18 15:14:03.010 ,2,0,0.,12.0,0.,12.0,0.,12.0,0.,12.0
1979-07-18 15:14:15.010 ,2,0,0.,12.0,0.,12.0,0.,12.0,0.,12.0
1979-07-18 15:14:27.010 ,3,1,0.,12.0,0.,12.0,0.,12.0,0.,12.0
1979-07-18 15:14:39.010 ,3,1,0.,12.0,0.,12.0,0.,12.0,0.,12.0
1979-07-18 15:14:51.010 ,3,0,0.,12.0,0.,12.0,0.,12.0,0.,12.0
1979-07-18 15:15:03.010 ,3,0,0.,12.0,0.,12.0,0.,12.0,0.,12.0
1979-07-18 15:15:15.010 ,4,1,0.,12.0,0.,12.0,0.,12.0,0.,12.0
1979-07-18 15:15:27.010 ,4,1,0.,12.0,0.,12.0,0.,12.0,0.,12.0
1979-07-18 15:15:39.010 ,4,0,0.,12.0,0.,12.0,0.,12.0,0.,12.0
1979-07-18 15:15:51.010 ,4,0,0.,12.0,0.,12.0,0.,12.0,0.,12.0
1979-07-18 15:16:03.010 ,5,1,0.,12.0,0.,12.0,0.,12.0,0.,12.0
1979-07-18 15:16:15.010 ,5,1,1.,12.0,0.,12.0,0.,12.0,0.,12.0
1979-07-18 15:16:27.010 ,5,0,0.,12.0,0.,12.0,0.,12.0,0.,12.0
1979-07-18 15:16:39.010 ,5,0,0.,12.0,0.,12.0,0.,12.0,0.,12.0
1979-07-18 15:16:51.010 ,6,1,0.,12.0,0.,12.0,0.,12.0,0.,12.0
1979-07-18 15:17:03.010 ,6,1,0.,12.0,0.,12.0,0.,12.0,0.,12.0
1979-07-18 15:17:15.010 ,6,0,0.,12.0,0.,12.0,0.,12.0,0.,12.0
1979-07-18 15:17:27.010 ,6,0,0.,12.0,0.,12.0,0.,12.0,0.,12.0
1979-07-18 15:17:39.010 ,7,1,0.,12.0,0.,12.0,0.,12.0,0.,12.0
1979-07-18 15:17:51.010 ,7,1,0.,12.0,0.,12.0,0.,12.0,0.,12.0
1979-07-18 15:18:03.010 ,7,0,0.,12.0,0.,12.0,0.,12.0,0.,12.0
1979-07-18 15:18:15.010 ,7,0,0.,12.0,0.,12.0,0.,12.0,0.,12.0
1979-07-18 15:18:27.010 ,7,1,0.,12.0,0.,12.0,0.,12.0,0.,12.0
1979-07-18 15:18:39.010 ,7,1,0.,12.0,0.,12.0,0.,12.0,0.,12.0
1979-07-18 15:18:51.010 ,7,0,0.,12.0,0.,12.0,0.,12.0,0.,12.0
1979-07-18 15:19:03.010 ,7,0,0.,12.0,0.,12.0,0.,12.0,0.,12.0
1979-07-18 15:19:15.010 ,6,1,0.,12.0,0.,12.0,0.,12.0,0.,12.0
1979-07-18 15:19:27.010 ,6,1,0.,12.0,0.,12.0,0.,12.0,0.,12.0
1979-07-18 15:19:39.010 ,6,0,0.,12.0,0.,12.0,0.,12.0,0.,12.0
1979-07-18 15:19:51.010 ,6,0,0.,12.0,0.,12.0,0.,12.0,0.,12.0
1979-07-18 15:20:03.010 ,5,1,0.,12.0,0.,12.0,0.,12.0,0.,12.0
1979-07-18 15:20:15.010 ,5,1,0.,12.0,0.,12.0,0.,12.0,0.,12.0
1979-07-18 15:20:27.010 ,5,0,0.,12.0,0.,12.0,0.,12.0,0.,12.0
1979-07-18 15:20:39.010 ,5,0,0.,12.0,0.,12.0,0.,12.0,0.,12.0
1979-07-18 15:20:51.010 ,4,1,0.,12.0,0.,12.0,0.,12.0,0.,12.0
1979-07-18 15:21:03.010 ,4,1,0.,12.0,0.,12.0,0.,12.0,0.,12.0
1979-07-18 15:21:15.010 ,4,0,0.,12.0,0.,12.0,0.,12.0,0.,12.0
1979-07-18 15:21:27.010 ,4,0,0.,12.0,0.,12.0,0.,12.0,0.,12.0
1979-07-18 15:21:39.010 ,3,1,0.,12.0,0.,12.0,0.,12.0,0.,12.0
1979-07-18 15:21:51.010 ,3,1,0.,12.0,0.,12.0,0.,12.0,0.,12.0
1979-07-18 15:22:03.010 ,3,0,0.,12.0,0.,12.0,0.,12.0,0.,12.0
1979-07-18 15:22:15.010 ,3,0,0.,12.0,0.,12.0,0.,12.0,0.,12.0
1979-07-18 15:22:27.010 ,2,1,0.,12.0,0.,12.0,0.,12.0,0.,12.0
1979-07-18 15:22:39.010 ,2,1,0.,12.0,0.,12.0,0.,12.0,0.,12.0
1979-07-18 15:22:51.010 ,2,0,0.,12.0,0.,12.0,0.,12.0,0.,12.0
1979-07-18 15:23:03.010 ,2,0,0.,12.0,0.,12.0,0.,12.0,0.,12.0
1979-07-18 15:23:15.010 ,1,1,0.,12.0,0.,12.0,0.,12.0,0.,12.0
1979-07-18 15:23:27.010 ,1,1,0.,12.0,0.,12.0,0.,12.0,0.,12.0
1979-07-18 15:23:39.010 ,1,0,0.,12.0,0.,12.0,0.,12.0,0.,12.0
1979-07-18 15:23:51.010 ,1,0,0.,12.0,0.,12.0,0.,12.0,0.,12.0
1979-07-18 15:24:03.010 ,0,1,0.,12.0,0.,12.0,0.,12.0,0.,12.0
1979-07-18 15:24:15.010 ,0,1,0.,12.0,0.,12.0,0.,12.0,0.,12.0
1979-07-18 15:24:27.010 ,0,0,0.,12.0,0.,12.0,0.,12.0,0.,12.0
1979-07-18 15:24:39.010 ,0,0,0.,12.0,0.,12.0,0.,12.0,0.,12.0
1979-07-18 15:24:51.010 ,0,1,0.,12.0,0.,12.0,0.,12.0,0.,12.0
1979-07-18 15:25:03.010 ,0,1,0.,12.0,0.,12.0,0.,12.0,0.,12.0
1979-07-18 15:25:15.010 ,0,0,0.,12.0,0.,12.0,0.,12.0,0.,12.0
1979-07-18 15:25:27.010 ,0,0,0.,12.0,0.,12.0,0.,12.0,0.,12.0
1979-07-18 15:25:39.010 ,1,1,0.,12.0,0.,12.0,0.,12.0,0.,12.0
1979-07-18 15:25:51.010 ,1,1,0.,12.0,0.,12.0,0.,12.0,0.,12.0
1979-07-18 15:26:03.010 ,1,0,0.,12.0,0.,12.0,0.,12.0,0.,12.0
1979-07-18 15:26:15.010 ,1,0,0.,12.0,0.,12.0,0.,12.0,0.,12.0
1979-07-18 15:26:27.010 ,2,1,0.,12.0,0.,12.0,0.,12.0,0.,12.0
1979-07-18 15:26:39.010 ,2,1,0.,12.0,0.,12.0,0.,12.0,1.,12.0
1979-07-18 15:26:51.010 ,2,0,0.,12.0,0.,12.0,0.,12.0,0.,12.0
1979-07-18 15:27:03.010 ,2,0,0.,12.0,0.,12.0,0.,12.0,0.,12.0
1979-07-18 15:27:15.010 ,3,1,0.,12.0,0.,12.0,0.,12.0,0.,12.0
1979-07-18 15:27:27.010 ,3,1,0.,12.0,0.,12.0,0.,12.0,0.,12.0
1979-07-18 15:27:39.010 ,3,0,0.,12.0,0.,12.0,0.,12.0,0.,12.0
1979-07-18 15:27:51.010 ,3,0,0.,12.0,0.,12.0,0.,12.0,0.,12.0
1979-07-18 15:28:03.010 ,4,1,0.,12.0,0.,12.0,0.,12.0,0.,12.0
1979-07-18 15:28:15.010 ,4,1,0.,12.0,0.,12.0,0.,12.0,0.,12.0
1979-07-18 15:28:27.010 ,4,0,0.,12.0,0.,12.0,0.,12.0,0.,12.0
1979-07-18 15:28:39.010 ,4,0,0.,12.0,0.,12.0,0.,12.0,0.,12.0
1979-07-18 15:28:51.010 ,5,1,0.,12.0,0.,12.0,0.,12.0,0.,12.0
1979-07-18 15:29:03.010 ,5,1,0.,12.0,0.,12.0,0.,12.0,0.,12.0
1979-07-18 15:29:15.010 ,5,0,0.,12.0,0.,12.0,0.,12.0,0.,12.0
1979-07-18 15:29:27.010 ,5,0,0.,12.0,0.,12.0,0.,12.0,0.,12.0
1979-07-18 15:29:39.010 ,6,1,0.,12.0,0.,12.0,0.,12.0,0.,12.0
1979-07-18 15:29:51.010 ,6,1,0.,12.0,0.,12.0,0.,12.0,0.,12.0
1979-07-18 15:30:03.010 ,6,0,0.,12.0,0.,12.0,0.,12.0,0.,12.0
1979-07-18 15:30:15.010 ,6,0,0.,12.0,0.,12.0,0.,12.0,0.,12.0
1979-07-18 15:30:27.010 ,7,0,1.,12.0,0.,12.0,0.,12.0,0.,12.0
1979-07-18 15:30:39.010 ,7,0,0.,12.0,0.,12.0,0.,12.0,0.,12.0
1979-07-18 15:30:51.010 ,7,0,0.,12.0,0.,12.0,0.,12.0,0.,12.0
1979-07-18 15:31:03.010 ,7,0,0.,12.0,0.,12.0,0.,12.0,0.,12.0
1979-07-18 15:31:15.010 ,4,1,0.,12.0,0.,12.0,0.,12.0,0.,12.0
1979-07-18 15:31:27.010 ,4,1,0.,12.0,0.,12.0,0.,12.0,0.,12.0
1979-07-18 15:31:39.010 ,0,1,1.,12.0,0.,12.0,0.,12.0,0.,12.0
1979-07-18 15:31:51.010 ,0,1,0.,12.0,0.,12.0,0.,12.0,0.,12.0
1979-07-18 15:32:03.010 ,3,1,0.,12.0,0.,12.0,0.,12.0,0.,12.0
1979-07-18 15:32:15.010 ,3,1,0.,12.0,0.,12.0,0.,12.0,0.,12.0
1979-07-18 15:32:27.010 ,7,1,0.,12.0,0.,12.0,0.,12.0,0.,12.0
1979-07-18 15:32:39.010 ,7,1,0.,12.0,0.,12.0,0.,12.0,0.,12.0
1979-07-18 15:32:51.010 ,4,1,0.,12.0,0.,12.0,0.,12.0,0.,12.0
1979-07-18 15:33:03.010 ,4,1,0.,12.0,0.,12.0,0.,12.0,0.,12.0
1979-07-18 15:33:15.010 ,0,1,0.,12.0,0.,12.0,0.,12.0,0.,12.0
1979-07-18 15:33:27.010 ,0,1,1.,12.0,0.,12.0,0.,12.0,0.,12.0
1979-07-18 15:33:39.010 ,3,1,0.,12.0,0.,12.0,0.,12.0,0.,12.0
1979-07-18 15:33:51.010 ,3,1,0.,12.0,0.,12.0,0.,12.0,0.,12.0
1979-07-18 15:34:03.010 ,7,1,0.,12.0,0.,12.0,0.,12.0,0.,12.0
1979-07-18 15:34:15.010 ,7,1,0.,12.0,0.,12.0,0.,12.0,0.,12.0
1979-07-18 15:34:27.010 ,4,1,0.,12.0,0.,12.0,0.,12.0,0.,12.0
1979-07-18 15:34:39.010 ,4,1,0.,12.0,0.,12.0,0.,12.0,0.,12.0
1979-07-18 15:34:51.010 ,0,1,0.,12.0,0.,12.0,0.,12.0,0.,12.0
1979-07-18 15:35:03.010 ,0,1,0.,12.0,0.,12.0,0.,12.0,0.,12.0
1979-07-18 15:35:15.010 ,3,1,0.,12.0,0.,12.0,0.,12.0,0.,12.0
1979-07-18 15:35:27.010 ,3,1,0.,12.0,0.,12.0,0.,12.0,0.,12.0
1979-07-18 15:35:39.010 ,7,1,0.,12.0,0.,12.0,0.,12.0,0.,12.0
1979-07-18 15:35:51.010 ,7,1,0.,12.0,0.,12.0,0.,12.0,0.,12.0
1979-07-18 15:36:51.010 ,0,0,0.,12.0,0.,12.0,0.,12.0,0.,12.0
1979-07-18 15:37:03.010 ,0,0,0.,12.0,0.,12.0,0.,12.0,0.,12.0
1979-07-18 15:37:15.010 ,7,1,0.,12.0,0.,12.0,0.,12.0,0.,12.0
1979-07-18 15:37:27.010 ,7,1,0.,12.0,0.,12.0,0.,12.0,0.,12.0
1979-07-18 15:37:39.010 ,4,1,0.,12.0,0.,12.0,0.,12.0,0.,12.0
1979-07-18 15:37:51.010 ,4,1,0.,12.0,0.,12.0,0.,12.0,0.,12.0
1979-07-18 15:38:03.010 ,0,1,0.,12.0,0.,12.0,0.,12.0,0.,12.0
1979-07-18 15:38:15.010 ,0,1,0.,12.0,0.,12.0,0.,12.0,0.,12.0
1979-07-18 15:38:27.010 ,3,1,0.,12.0,0.,12.0,0.,12.0,0.,12.0
1979-07-18 15:38:39.010 ,3,1,0.,12.0,0.,12.0,0.,12.0,0.,12.0
1979-07-18 15:38:51.010 ,7,1,0.,12.0,0.,12.0,0.,12.0,0.,12.0
1979-07-18 15:39:03.010 ,7,1,0.,12.0,0.,12.0,0.,12.0,0.,12.0
1979-07-18 15:39:15.010 ,4,1,0.,12.0,0.,12.0,0.,12.0,0.,12.0
1979-07-18 15:39:27.010 ,4,1,0.,12.0,0.,12.0,0.,12.0,0.,12.0
1979-07-18 15:39:39.010 ,0,1,0.,12.0,0.,12.0,0.,12.0,0.,12.0
1979-07-18 15:39:51.010 ,0,1,0.,12.0,0.,12.0,0.,12.0,0.,12.0
1979-07-18 15:40:03.010 ,3,1,0.,12.0,0.,12.0,0.,12.0,0.,12.0
1979-07-18 15:40:15.010 ,3,1,0.,12.0,0.,12.0,0.,12.0,0.,12.0
1979-07-18 15:40:27.010 ,7,1,0.,12.0,0.,12.0,0.,12.0,0.,12.0
1979-07-18 15:40:39.010 ,7,1,0.,12.0,0.,12.0,0.,12.0,0.,12.0
1979-07-18 15:40:51.010 ,4,1,0.,12.0,0.,12.0,0.,12.0,0.,12.0
1979-07-18 15:41:03.010 ,4,1,0.,12.0,0.,12.0,0.,12.0,0.,12.0
1979-07-18 15:41:15.010 ,0,1,0.,12.0,0.,12.0,0.,12.0,0.,12.0
1979-07-18 15:41:27.010 ,0,1,0.,12.0,0.,12.0,0.,12.0,0.,12.0
1979-07-18 15:41:39.010 ,0,0,0.,12.0,0.,12.0,0.,12.0,0.,12.0
1979-07-18 15:41:51.010 ,0,0,0.,12.0,0.,12.0,0.,12.0,0.,12.0
1979-07-18 15:42:03.010 ,0,0,0.,12.0,0.,12.0,0.,12.0,0.,12.0
1979-07-18 15:42:15.010 ,0,0,0.,12.0,0.,12.0,0.,12.0,0.,12.0
1979-07-18 15:42:27.010 ,5,1,0.,12.0,0.,12.0,0.,12.0,0.,12.0
1979-07-18 15:42:39.010 ,5,1,0.,12.0,0.,12.0,0.,12.0,0.,12.0
1979-07-18 15:42:51.010 ,5,0,0.,12.0,0.,12.0,0.,12.0,0.,12.0
1979-07-18 15:43:03.010 ,5,0,0.,12.0,0.,12.0,0.,12.0,0.,12.0
1979-07-18 15:43:15.010 ,4,1,0.,12.0,0.,12.0,0.,12.0,0.,12.0
1979-07-18 15:43:27.010 ,4,1,0.,12.0,0.,12.0,0.,12.0,0.,12.0
1979-07-18 15:43:39.010 ,4,0,0.,12.0,0.,12.0,0.,12.0,0.,12.0
1979-07-18 15:43:51.010 ,4,0,0.,12.0,0.,12.0,0.,12.0,0.,12.0
1979-07-18 15:44:03.010 ,3,1,0.,12.0,0.,12.0,0.,12.0,0.,12.0
1979-07-18 15:44:15.010 ,3,1,0.,12.0,0.,12.0,0.,12.0,0.,12.0
1979-07-18 15:44:27.010 ,3,0,0.,12.0,0.,12.0,0.,12.0,0.,12.0
1979-07-18 15:44:39.010 ,3,0,0.,12.0,0.,12.0,0.,12.0,0.,12.0
1979-07-18 15:44:51.010 ,2,1,0.,12.0,0.,12.0,0.,12.0,0.,12.0
1979-07-18 15:45:03.010 ,2,1,0.,12.0,0.,12.0,0.,12.0,0.,12.0
1979-07-18 15:45:15.010 ,2,0,0.,12.0,0.,12.0,0.,12.0,0.,12.0
1979-07-18 15:45:27.010 ,2,0,0.,12.0,0.,12.0,0.,12.0,0.,12.0
1979-07-18 15:45:39.010 ,1,1,0.,12.0,0.,12.0,0.,12.0,0.,12.0
1979-07-18 15:45:51.010 ,1,1,0.,12.0,0.,12.0,0.,12.0,0.,12.0
1979-07-18 15:46:03.010 ,1,0,0.,12.0,0.,12.0,0.,12.0,0.,12.0
1979-07-18 15:46:15.010 ,1,0,0.,12.0,0.,12.0,0.,12.0,0.,12.0
1979-07-18 15:46:27.010 ,0,1,0.,12.0,0.,12.0,0.,12.0,0.,12.0
1979-07-18 15:46:39.010 ,0,1,0.,12.0,0.,12.0,0.,12.0,0.,12.0
1979-07-18 15:46:51.010 ,0,0,0.,12.0,0.,12.0,0.,12.0,0.,12.0
1979-07-18 15:47:03.010 ,0,0,0.,12.0,0.,12.0,0.,12.0,0.,12.0
1979-07-18 15:47:29.410 ,0,0,,0,,0,,0,,0
1979-07-18 15:47:41.410 ,0,0,0.,12.0,0.,12.0,0.,12.0,0.,12.0
1979-07-18 15:47:39.010 ,0,0,0.,12.0,0.,12.0,0.,12.0,0.,12.0
1979-07-18 15:47:51.010 ,0,0,0.,12.0,0.,12.0,0.,12.0,0.,12.0
1979-07-18 15:48:03.010 ,1,1,0.,12.0,0.,12.0,0.,12.0,0.,12.0
1979-07-18 15:48:15.010 ,1,1,0.,12.0,0.,12.0,0.,12.0,0.,12.0
1979-07-18 15:48:27.010 ,1,0,0.,12.0,0.,12.0,0.,12.0,0.,12.0
1979-07-18 15:48:39.010 ,1,0,0.,12.0,0.,12.0,0.,12.0,0.,12.0
1979-07-18 15:49:39.010 ,0,0,0.,12.0,0.,12.0,0.,12.0,0.,12.0
1979-07-18 15:49:51.010 ,0,0,0.,12.0,0.,12.0,0.,12.0,0.,12.0
1979-07-18 15:50:03.010 ,0,0,1.,12.0,0.,12.0,0.,12.0,0.,12.0
1979-07-18 15:50:15.010 ,0,0,0.,12.0,0.,12.0,0.,12.0,0.,12.0
1979-07-18 15:50:27.010 ,4,1,0.,12.0,0.,12.0,0.,12.0,0.,12.0
1979-07-18 15:50:39.010 ,4,1,0.,12.0,0.,12.0,0.,12.0,0.,12.0
1979-07-18 15:50:51.010 ,4,0,0.,12.0,0.,12.0,0.,12.0,0.,12.0
1979-07-18 15:51:03.010 ,4,0,0.,12.0,0.,12.0,0.,12.0,0.,12.0
1979-07-18 15:51:15.010 ,5,1,0.,12.0,0.,12.0,0.,12.0,0.,12.0
1979-07-18 15:51:27.010 ,5,1,0.,12.0,0.,12.0,0.,12.0,0.,12.0
1979-07-18 15:51:39.010 ,5,0,0.,12.0,0.,12.0,0.,12.0,0.,12.0
1979-07-18 15:51:51.010 ,5,0,0.,12.0,0.,12.0,0.,12.0,0.,12.0
1979-07-18 15:52:03.010 ,6,1,0.,12.0,0.,12.0,0.,12.0,0.,12.0
1979-07-18 15:52:15.010 ,6,1,0.,12.0,0.,12.0,0.,12.0,0.,12.0
1979-07-18 15:52:27.010 ,6,0,0.,12.0,0.,12.0,0.,12.0,0.,12.0
1979-07-18 15:52:39.010 ,6,0,0.,12.0,0.,12.0,0.,12.0,0.,12.0
1979-07-18 15:52:51.010 ,7,1,0.,12.0,0.,12.0,0.,12.0,0.,12.0
1979-07-18 15:53:03.010 ,7,1,0.,12.0,0.,12.0,0.,12.0,0.,12.0
1979-07-18 15:53:15.010 ,7,0,0.,12.0,0.,12.0,0.,12.0,0.,12.0
1979-07-18 15:53:27.010 ,7,0,0.,12.0,0.,12.0,0.,12.0,0.,12.0
1979-07-18 15:53:39.010 ,7,1,0.,12.0,0.,12.0,0.,12.0,0.,12.0
1979-07-18 15:53:51.010 ,7,1,0.,12.0,0.,12.0,0.,12.0,0.,12.0
1979-07-18 15:54:03.010 ,7,0,0.,12.0,0.,12.0,0.,12.0,0.,12.0
1979-07-18 15:54:15.010 ,7,0,0.,12.0,0.,12.0,0.,12.0,0.,12.0
1979-07-18 15:54:27.010 ,6,1,0.,12.0,0.,12.0,0.,12.0,0.,12.0
1979-07-18 15:54:39.010 ,6,1,0.,12.0,0.,12.0,0.,12.0,0.,12.0
1979-07-18 15:54:51.010 ,6,0,0.,12.0,0.,12.0,0.,12.0,0.,12.0
1979-07-18 15:55:03.010 ,6,0,0.,12.0,0.,12.0,0.,12.0,0.,12.0
1979-07-18 15:55:15.010 ,5,1,0.,12.0,0.,12.0,0.,12.0,0.,12.0
1979-07-18 15:55:27.010 ,5,1,0.,12.0,0.,12.0,0.,12.0,0.,12.0
1979-07-18 15:55:39.010 ,5,0,0.,12.0,0.,12.0,0.,12.0,0.,12.0
1979-07-18 15:55:51.010 ,5,0,0.,12.0,0.,12.0,0.,12.0,0.,12.0
1979-07-18 15:56:03.010 ,4,1,0.,12.0,0.,12.0,0.,12.0,0.,12.0
1979-07-18 15:56:15.010 ,4,1,0.,12.0,0.,12.0,0.,12.0,0.,12.0
1979-07-18 15:56:27.010 ,4,0,0.,12.0,0.,12.0,0.,12.0,0.,12.0
1979-07-18 15:56:39.010 ,4,0,0.,12.0,0.,12.0,0.,12.0,0.,12.0
1979-07-18 15:56:51.010 ,3,1,0.,12.0,0.,12.0,0.,12.0,0.,12.0
1979-07-18 15:57:03.010 ,3,1,0.,12.0,0.,12.0,0.,12.0,0.,12.0
1979-07-18 15:57:15.010 ,3,0,0.,12.0,0.,12.0,0.,12.0,0.,12.0
1979-07-18 15:57:27.010 ,3,0,0.,12.0,0.,12.0,0.,12.0,0.,12.0
1979-07-18 15:57:39.010 ,2,1,0.,12.0,0.,12.0,0.,12.0,0.,12.0
1979-07-18 15:57:51.010 ,2,1,0.,12.0,0.,12.0,0.,12.0,0.,12.0
1979-07-18 15:58:03.010 ,2,0,0.,12.0,0.,12.0,0.,12.0,0.,12.0
1979-07-18 15:58:15.010 ,2,0,0.,12.0,0.,12.0,0.,12.0,0.,12.0
1979-07-18 15:58:27.010 ,1,1,0.,12.0,0.,12.0,0.,12.0,0.,12.0
1979-07-18 15:58:39.010 ,1,1,0.,12.0,0.,12.0,0.,12.0,0.,12.0
1979-07-18 15:58:51.010 ,1,0,0.,12.0,0.,12.0,0.,12.0,0.,12.0
1979-07-18 15:59:03.010 ,1,0,0.,12.0,0.,12.0,0.,12.0,0.,12.0
1979-07-18 15:59:15.010 ,0,1,0.,12.0,0.,12.0,0.,12.0,0.,12.0
1979-07-18 15:59:27.010 ,0,1,0.,12.0,0.,12.0,0.,12.0,0.,12.0
1979-07-18 15:59:39.010 ,0,0,0.,12.0,0.,12.0,0.,12.0,0.,12.0
1979-07-18 15:59:51.010 ,0,0,0.,12.0,0.,12.0,0.,12.0,0.,12.0
1979-07-18 16:00:03.010 ,0,1,0.,12.0,0.,12.0,0.,12.0,0.,12.0
1979-07-18 16:00:15.010 ,0,1,0.,12.0,0.,12.0,0.,12.0,0.,12.0
1979-07-18 16:00:27.010 ,0,0,0.,12.0,0.,12.0,0.,12.0,0.,12.0
1979-07-18 16:00:39.010 ,0,0,0.,12.0,0.,12.0,0.,12.0,0.,12.0
1979-07-18 16:00:51.010 ,1,1,0.,12.0,0.,12.0,0.,12.0,0.,12.0
1979-07-18 16:01:03.010 ,1,1,0.,12.0,0.,12.0,0.,12.0,0.,12.0
1979-07-18 16:01:15.010 ,1,0,0.,12.0,0.,12.0,0.,12.0,0.,12.0
1979-07-18 16:01:27.010 ,1,0,1.,12.0,0.,12.0,0.,12.0,0.,12.0
1979-07-18 16:01:39.010 ,2,1,0.,12.0,0.,12.0,0.,12.0,0.,12.0
1979-07-18 16:01:51.010 ,2,1,0.,12.0,0.,12.0,0.,12.0,0.,12.0
1979-07-18 16:02:03.010 ,2,0,0.,12.0,0.,12.0,0.,12.0,0.,12.0
1979-07-18 16:02:15.010 ,2,0,0.,12.0,0.,12.0,0.,12.0,0.,12.0
1979-07-18 16:03:15.010 ,0,0,0.,12.0,0.,12.0,0.,12.0,0.,12.0
1979-07-18 16:03:27.010 ,0,0,0.,12.0,0.,12.0,0.,12.0,0.,12.0
1979-07-18 16:03:39.010 ,0,0,0.,12.0,0.,12.0,0.,12.0,0.,12.0
1979-07-18 16:03:51.010 ,0,0,0.,12.0,0.,12.0,0.,12.0,0.,12.0
1979-07-18 16:04:03.010 ,5,1,0.,12.0,0.,12.0,0.,12.0,0.,12.0
1979-07-18 16:04:15.010 ,5,1,0.,12.0,0.,12.0,0.,12.0,0.,12.0
1979-07-18 16:04:27.010 ,5,0,0.,12.0,0.,12.0,0.,12.0,0.,12.0
1979-07-18 16:04:39.010 ,5,0,0.,12.0,0.,12.0,0.,12.0,0.,12.0
1979-07-18 16:04:51.010 ,6,1,0.,12.0,0.,12.0,0.,12.0,0.,12.0
1979-07-18 16:05:03.010 ,6,1,0.,12.0,0.,12.0,0.,12.0,0.,12.0
1979-07-18 16:05:15.010 ,6,0,0.,12.0,0.,12.0,0.,12.0,0.,12.0
1979-07-18 16:05:27.010 ,6,0,0.,12.0,0.,12.0,0.,12.0,0.,12.0
1979-07-18 16:05:39.010 ,7,1,0.,12.0,0.,12.0,0.,12.0,0.,12.0
1979-07-18 16:05:51.010 ,7,1,0.,12.0,0.,12.0,0.,12.0,0.,12.0
1979-07-18 16:06:03.010 ,7,0,0.,12.0,0.,12.0,0.,12.0,0.,12.0
1979-07-18 16:06:15.010 ,7,0,0.,12.0,0.,12.0,0.,12.0,0.,12.0
1979-07-18 16:06:27.010 ,7,1,0.,12.0,0.,12.0,0.,12.0,0.,12.0
1979-07-18 16:06:39.010 ,7,1,0.,12.0,0.,12.0,0.,12.0,0.,12.0
1979-07-18 16:06:51.010 ,7,0,0.,12.0,0.,12.0,0.,12.0,0.,12.0
1979-07-18 16:07:03.010 ,7,0,0.,12.0,0.,12.0,0.,12.0,0.,12.0
1979-07-18 16:07:15.010 ,6,1,0.,12.0,0.,12.0,0.,12.0,0.,12.0
1979-07-18 16:07:27.010 ,6,1,0.,12.0,0.,12.0,0.,12.0,0.,12.0
1979-07-18 16:07:39.010 ,6,0,0.,12.0,0.,12.0,0.,12.0,0.,12.0
1979-07-18 16:07:51.010 ,6,0,0.,12.0,0.,12.0,0.,12.0,0.,12.0
1979-07-18 16:08:03.010 ,5,1,0.,12.0,0.,12.0,0.,12.0,0.,12.0
1979-07-18 16:08:15.010 ,5,1,0.,12.0,0.,12.0,0.,12.0,0.,12.0
1979-07-18 16:08:27.010 ,5,0,0.,12.0,0.,12.0,0.,12.0,0.,12.0
1979-07-18 16:08:39.010 ,5,0,0.,12.0,0.,12.0,0.,12.0,0.,12.0
1979-07-18 16:09:39.010 ,0,0,0.,12.0,0.,12.0,0.,12.0,0.,12.0
1979-07-18 16:09:51.010 ,0,0,0.,12.0,0.,12.0,0.,12.0,0.,12.0
1979-07-18 16:10:03.010 ,0,0,0.,12.0,0.,12.0,0.,12.0,0.,12.0
1979-07-18 16:10:15.010 ,0,0,0.,12.0,0.,12.0,0.,12.0,0.,12.0
1979-07-18 16:10:27.010 ,2,1,0.,12.0,0.,12.0,0.,12.0,0.,12.0
1979-07-18 16:10:39.010 ,2,1,0.,12.0,0.,12.0,0.,12.0,0.,12.0
1979-07-18 16:10:51.010 ,2,0,0.,12.0,0.,12.0,0.,12.0,0.,12.0
1979-07-18 16:11:03.010 ,2,0,0.,12.0,0.,12.0,0.,12.0,0.,12.0
1979-07-18 16:11:15.010 ,1,1,0.,12.0,0.,12.0,0.,12.0,0.,12.0
1979-07-18 16:11:27.010 ,1,1,0.,12.0,0.,12.0,0.,12.0,0.,12.0
1979-07-18 16:11:39.010 ,1,0,0.,12.0,0.,12.0,0.,12.0,0.,12.0
1979-07-18 16:11:51.010 ,1,0,0.,12.0,0.,12.0,0.,12.0,0.,12.0
1979-07-18 16:12:03.010 ,0,1,0.,12.0,0.,12.0,0.,12.0,0.,12.0
1979-07-18 16:12:15.010 ,0,1,0.,12.0,0.,12.0,0.,12.0,0.,12.0
1979-07-18 16:12:27.010 ,0,0,0.,12.0,0.,12.0,0.,12.0,0.,12.0
1979-07-18 16:12:39.010 ,0,0,0.,12.0,0.,12.0,0.,12.0,0.,12.0
1979-07-18 16:13:39.010 ,0,0,0.,12.0,0.,12.0,0.,12.0,0.,12.0
1979-07-18 16:13:51.010 ,0,0,0.,12.0,0.,12.0,0.,12.0,0.,12.0
1979-07-18 16:14:03.010 ,0,0,0.,12.0,0.,12.0,0.,12.0,0.,12.0
1979-07-18 16:14:15.010 ,0,0,0.,12.0,0.,12.0,0.,12.0,0.,12.0
1979-07-18 16:14:27.010 ,2,1,0.,12.0,0.,12.0,0.,12.0,0.,12.0
1979-07-18 16:14:39.010 ,2,1,0.,12.0,0.,12.0,0.,12.0,0.,12.0
1979-07-18 16:14:51.010 ,2,0,0.,12.0,0.,12.0,0.,12.0,0.,12.0
1979-07-18 16:15:03.010 ,2,0,0.,12.0,0.,12.0,0.,12.0,0.,12.0
1979-07-18 16:15:15.010 ,3,1,0.,12.0,0.,12.0,0.,12.0,0.,12.0
1979-07-18 16:15:27.010 ,3,1,0.,12.0,0.,12.0,0.,12.0,0.,12.0
1979-07-18 16:15:39.010 ,3,0,0.,12.0,0.,12.0,0.,12.0,0.,12.0
1979-07-18 16:15:51.010 ,3,0,0.,12.0,0.,12.0,0.,12.0,0.,12.0
1979-07-18 16:16:51.010 ,0,0,0.,12.0,0.,12.0,0.,12.0,0.,12.0
1979-07-18 16:17:03.010 ,0,0,0.,12.0,0.,12.0,0.,12.0,0.,12.0
1979-07-18 16:17:15.010 ,0,0,0.,12.0,0.,12.0,0.,12.0,0.,12.0
1979-07-18 16:17:27.010 ,0,0,0.,12.0,0.,12.0,0.,12.0,0.,12.0
1979-07-18 16:17:39.010 ,6,1,0.,12.0,0.,12.0,0.,12.0,0.,12.0
1979-07-18 16:17:51.010 ,6,1,0.,12.0,0.,12.0,0.,12.0,0.,12.0
1979-07-18 16:18:03.010 ,6,0,0.,12.0,0.,12.0,0.,12.0,0.,12.0
1979-07-18 16:18:15.010 ,6,0,0.,12.0,0.,12.0,0.,12.0,0.,12.0
1979-07-18 16:18:27.010 ,7,0,0.,12.0,0.,12.0,0.,12.0,0.,12.0
1979-07-18 16:18:39.010 ,7,0,0.,12.0,0.,12.0,0.,12.0,0.,12.0
1979-07-18 16:18:51.010 ,7,0,0.,12.0,0.,12.0,0.,12.0,0.,12.0
1979-07-18 16:19:03.010 ,7,0,0.,12.0,0.,12.0,0.,12.0,0.,12.0
1979-07-18 16:19:15.010 ,4,1,0.,12.0,0.,12.0,0.,12.0,0.,12.0
1979-07-18 16:19:27.010 ,4,1,0.,12.0,0.,12.0,0.,12.0,0.,12.0
1979-07-18 16:19:39.010 ,0,1,0.,12.0,0.,12.0,0.,12.0,0.,12.0
1979-07-18 16:19:51.010 ,0,1,0.,12.0,0.,12.0,0.,12.0,0.,12.0
1979-07-18 16:20:03.010 ,3,1,0.,12.0,0.,12.0,0.,12.0,0.,12.0
1979-07-18 16:20:15.010 ,3,1,0.,12.0,0.,12.0,0.,12.0,0.,12.0
1979-07-18 16:20:27.010 ,7,1,1.,12.0,0.,12.0,0.,12.0,0.,12.0
1979-07-18 16:20:39.010 ,7,1,0.,12.0,0.,12.0,0.,12.0,0.,12.0
1979-07-18 16:20:51.010 ,4,1,0.,12.0,0.,12.0,0.,12.0,0.,12.0
1979-07-18 16:21:03.010 ,4,1,0.,12.0,0.,12.0,0.,12.0,0.,12.0
1979-07-18 16:21:15.010 ,0,1,0.,12.0,0.,12.0,0.,12.0,0.,12.0
1979-07-18 16:21:27.010 ,0,1,0.,12.0,0.,12.0,0.,12.0,0.,12.0
1979-07-18 16:21:39.010 ,3,1,0.,12.0,0.,12.0,0.,12.0,0.,12.0
1979-07-18 16:21:51.010 ,3,1,0.,12.0,0.,12.0,0.,12.0,0.,12.0
1979-07-18 16:22:03.010 ,7,1,0.,12.0,0.,12.0,0.,12.0,0.,12.0
1979-07-18 16:22:15.010 ,7,1,0.,12.0,0.,12.0,0.,12.0,0.,12.0
1979-07-18 16:23:15.010 ,0,0,0.,12.0,0.,12.0,0.,12.0,0.,12.0
1979-07-18 16:23:27.010 ,0,0,0.,12.0,0.,12.0,0.,12.0,0.,12.0
1979-07-18 16:23:39.010 ,7,1,0.,12.0,0.,12.0,0.,12.0,0.,12.0
1979-07-18 16:23:51.010 ,7,1,0.,12.0,0.,12.0,0.,12.0,0.,12.0